Дата Время Давление Темп. Влажн. Скор.ветра Напр.ветра Макс.ветер Осадки/час Осадки
27.01.22 01:00 745.2 -6.1 83.5 0.7 332 2 0 0
27.01.22 00:00 745.2 -6 84.9 0.9 254 2.9 0 2.2
26.01.22 23:00 745.3 -5.9 86.3 1.1 12 1.9 0 2.2
26.01.22 22:00 745.2 -5.7 86.3 0.7 15 2.8 0 2.2
26.01.22 21:00 745.1 -5.4 86.1 1.5 42 3.4 0 2.2
26.01.22 20:00 745.2 -5.2 86.7 1.7 39 3 0 2.2
26.01.22 19:00 745.1 -5 86 1.3 16 3.5 0 2.2
26.01.22 18:00 745 -4.9 86.4 1.8 359 4.2 0 2.2
26.01.22 17:00 744.8 -4.2 88.5 1.8 7 4.3 0 2.2
26.01.22 16:00 744.5 -3.6 87.2 2.1 46 3.8 0 2.2
26.01.22 15:00 744.3 -3.5 87.7 1.7 26 4 0 2.2
26.01.22 14:00 744.1 -3.6 88.7 2.2 38 4.4 0 2.2
26.01.22 13:00 744.1 -4 90 2.3 21 5.7 0 2.2
26.01.22 12:00 743.8 -4.3 92.1 2.6 45 5 0 2.2
26.01.22 11:00 743.5 -4.8 93.7 1.9 45 3.5 0 2.2
26.01.22 10:00 743.4 -5.8 94 2 54 3.3 0 2.2
26.01.22 09:00 743.4 -6.6 93.8 1.9 43 3.6 0.2 2.2
26.01.22 08:00 743.4 -7.3 93.2 1 28 2.6 0 2
26.01.22 07:00 743.4 -8 92.3 0.9 337 2.4 0 2
26.01.22 06:00 743.3 -8.3 91.5 1.1 312 2.1 0 2
26.01.22 05:00 743.5 -8.6 91.5 0.8 251 1.8 0 2
26.01.22 04:00 743.3 -8.9 91.6 1 275 1.9 0.2 2
26.01.22 03:00 743.3 -8.8 91.5 0.7 214 2.3 0.6 1.8
26.01.22 02:00 743.5 -9.1 91.6 0.9 218 2.4 0.4 1.2